Time,TemperatureF,DewpointF,PressureIn,WindDirection,WindDirectionDegrees,WindSpeedMPH,WindSpeedGustMPH,Humidity,HourlyPrecipIn,Conditions,Clouds,dailyrainin,SolarRadiationWatts/m^2,SoftwareType,DateUTC
2013-01-31 00:03:00,41.0,34.0,-100.00,SW,231,4.0,13.0,77,0.00,,,4.40,0.000000,,2013-01-31 05:03:00,
2013-01-31 00:42:00,40.0,36.0,-100.00,WSW,250,5.0,12.0,86,0.00,,,4.26,0.000000,,2013-01-31 05:42:00,
2013-01-31 00:52:00,40.0,36.0,-100.00,WSW,250,5.0,12.0,86,0.00,,,4.26,0.000000,,2013-01-31 05:52:00,
2013-01-31 01:01:00,40.0,36.0,-100.00,WSW,250,5.0,12.0,86,0.00,,,4.26,0.000000,,2013-01-31 06:01:00,
2013-01-31 09:03:00,27.0,13.0,-100.00,ENE,58,6.0,14.0,54,0.00,,,3.71,6.000000,,2013-01-31 14:03:00,
2013-01-31 09:32:00,30.0,14.0,-100.00,NNE,29,4.0,15.0,50,0.00,,,3.62,74.000000,,2013-01-31 14:32:00,
2013-01-31 09:42:00,30.0,14.0,-100.00,NNE,29,4.0,15.0,50,0.00,,,3.62,74.000000,,2013-01-31 14:42:00,
2013-01-31 09:52:00,30.0,14.0,-100.00,NNE,29,4.0,15.0,50,0.00,,,3.62,74.000000,,2013-01-31 14:52:00,
2013-01-31 10:03:00,30.0,14.0,-100.00,NNE,29,4.0,15.0,50,0.00,,,3.62,74.000000,,2013-01-31 15:03:00,
2013-01-31 10:32:00,32.0,10.0,-100.00,ENE,72,6.0,16.0,40,0.00,,,3.51,272.000000,,2013-01-31 15:32:00,
2013-01-31 10:42:00,32.0,10.0,-100.00,ENE,72,6.0,16.0,40,0.00,,,3.51,272.000000,,2013-01-31 15:42:00,
2013-01-31 10:52:00,32.0,10.0,-100.00,ENE,72,6.0,16.0,40,0.00,,,3.51,272.000000,,2013-01-31 15:52:00,
2013-01-31 11:03:00,32.0,10.0,-100.00,ENE,72,6.0,16.0,40,0.00,,,3.51,272.000000,,2013-01-31 16:03:00,
2013-01-31 11:33:00,34.0,11.0,-100.00,ENE,64,8.0,23.0,37,0.00,,,3.38,326.000000,,2013-01-31 16:33:00,
2013-01-31 11:42:00,34.0,11.0,-100.00,ENE,64,8.0,23.0,37,0.00,,,3.38,326.000000,,2013-01-31 16:42:00,
2013-01-31 11:52:00,34.0,11.0,-100.00,ENE,64,8.0,23.0,37,0.00,,,3.38,326.000000,,2013-01-31 16:52:00,
2013-01-31 12:03:00,34.0,11.0,-100.00,ENE,64,8.0,23.0,37,0.00,,,3.38,326.000000,,2013-01-31 17:03:00,
2013-01-31 12:32:00,36.0,9.0,-100.00,ESE,102,8.0,25.0,32,0.00,,,3.23,585.000000,,2013-01-31 17:32:00,
2013-01-31 12:44:00,36.0,9.0,-100.00,ESE,102,8.0,25.0,32,0.00,,,3.23,585.000000,,2013-01-31 17:44:00,
2013-01-31 12:53:00,36.0,9.0,-100.00,ESE,102,8.0,25.0,32,0.00,,,3.23,585.000000,,2013-01-31 17:53:00,
2013-01-31 13:03:00,36.0,9.0,-100.00,ESE,102,8.0,25.0,32,0.00,,,3.23,585.000000,,2013-01-31 18:03:00,
2013-01-31 13:32:00,37.0,11.0,-100.00,East,91,8.0,20.0,33,0.00,,,2.92,691.000000,,2013-01-31 18:32:00,
2013-01-31 13:43:00,37.0,11.0,-100.00,East,91,8.0,20.0,33,0.00,,,2.92,691.000000,,2013-01-31 18:43:00,
2013-01-31 13:52:00,37.0,11.0,-100.00,East,91,8.0,20.0,33,0.00,,,2.92,691.000000,,2013-01-31 18:52:00,
2013-01-31 14:03:00,37.0,11.0,-100.00,East,91,8.0,20.0,33,0.00,,,2.92,691.000000,,2013-01-31 19:03:00,
2013-01-31 14:33:00,36.0,13.0,-100.00,ENE,69,8.0,28.0,39,0.00,,,2.45,656.000000,,2013-01-31 19:33:00,
2013-01-31 14:43:00,36.0,13.0,-100.00,ENE,69,8.0,28.0,39,0.00,,,2.45,656.000000,,2013-01-31 19:43:00,
2013-01-31 14:52:00,36.0,13.0,-100.00,ENE,69,8.0,28.0,39,0.00,,,2.45,656.000000,,2013-01-31 19:52:00,
2013-01-31 15:02:00,36.0,13.0,-100.00,ENE,69,8.0,28.0,39,0.00,,,2.45,656.000000,,2013-01-31 20:02:00,
2013-01-31 15:22:00,37.0,13.0,-100.00,NE,34,9.0,23.0,36,0.00,,,1.73,536.000000,,2013-01-31 20:22:00,
2013-01-31 15:32:00,37.0,13.0,-100.00,NE,34,9.0,23.0,36,0.00,,,1.73,536.000000,,2013-01-31 20:32:00,
2013-01-31 15:42:00,37.0,13.0,-100.00,NE,34,9.0,23.0,36,0.00,,,1.73,536.000000,,2013-01-31 20:42:00,
2013-01-31 15:52:00,37.0,13.0,-100.00,NE,34,9.0,23.0,36,0.00,,,1.73,536.000000,,2013-01-31 20:52:00,
2013-01-31 16:02:00,37.0,13.0,-100.00,NE,34,9.0,23.0,36,0.00,,,1.73,536.000000,,2013-01-31 21:02:00,
2013-01-31 16:32:00,38.0,11.0,-100.00,ENE,61,6.0,18.0,33,0.00,,,1.00,433.000000,,2013-01-31 21:32:00,
2013-01-31 16:42:00,38.0,11.0,-100.00,ENE,61,6.0,18.0,33,0.00,,,1.00,433.000000,,2013-01-31 21:42:00,
2013-01-31 16:52:00,38.0,11.0,-100.00,ENE,61,6.0,18.0,33,0.00,,,1.00,433.000000,,2013-01-31 21:52:00,
2013-01-31 17:03:00,38.0,11.0,-100.00,ENE,61,6.0,18.0,33,0.00,,,1.00,433.000000,,2013-01-31 22:03:00,
2013-01-31 17:33:00,37.0,11.0,-100.00,ENE,75,6.0,19.0,34,0.00,,,0.42,229.000000,,2013-01-31 22:33:00,
2013-01-31 17:42:00,37.0,11.0,-100.00,ENE,75,6.0,19.0,34,0.00,,,0.42,229.000000,,2013-01-31 22:42:00,
2013-01-31 17:52:00,37.0,11.0,-100.00,ENE,75,6.0,19.0,34,0.00,,,0.42,229.000000,,2013-01-31 22:52:00,
2013-01-31 18:03:00,37.0,11.0,-100.00,ENE,75,6.0,19.0,34,0.00,,,0.42,229.000000,,2013-01-31 23:03:00,
2013-01-31 18:32:00,36.0,12.0,-100.00,East,81,8.0,22.0,36,0.00,,,0.23,31.000000,,2013-01-31 23:32:00,
2013-01-31 18:42:00,36.0,12.0,-100.00,East,81,8.0,22.0,36,0.00,,,0.23,31.000000,,2013-01-31 23:42:00,
2013-01-31 18:52:00,36.0,12.0,-100.00,East,81,8.0,22.0,36,0.00,,,0.23,31.000000,,2013-01-31 23:52:00,
2013-01-31 19:02:00,36.0,12.0,-100.00,East,81,8.0,22.0,36,0.00,,,0.23,31.000000,,2013-02-01 00:02:00,
2013-01-31 19:32:00,35.0,14.0,-100.00,NNE,31,4.0,20.0,41,0.00,,,0.11,0.000000,,2013-02-01 00:32:00,
2013-01-31 19:42:00,35.0,14.0,-100.00,NNE,31,4.0,20.0,41,0.00,,,0.11,0.000000,,2013-02-01 00:42:00,
2013-01-31 19:52:00,35.0,14.0,-100.00,NNE,31,4.0,20.0,41,0.00,,,0.11,0.000000,,2013-02-01 00:52:00,
2013-01-31 20:01:00,35.0,14.0,-100.00,NNE,31,4.0,20.0,41,0.00,,,0.11,0.000000,,2013-02-01 01:01:00,
2013-01-31 20:32:00,35.0,16.0,-100.00,East,98,6.0,14.0,46,0.00,,,0.05,0.000000,,2013-02-01 01:32:00,
2013-01-31 20:42:00,35.0,16.0,-100.00,East,98,6.0,14.0,46,0.00,,,0.05,0.000000,,2013-02-01 01:42:00,
2013-01-31 20:52:00,35.0,16.0,-100.00,East,98,6.0,14.0,46,0.00,,,0.05,0.000000,,2013-02-01 01:52:00,
2013-01-31 21:02:00,35.0,16.0,-100.00,East,98,6.0,14.0,46,0.00,,,0.05,0.000000,,2013-02-01 02:02:00,
2013-01-31 21:32:00,36.0,14.0,-100.00,SW,217,8.0,22.0,40,0.00,,,0.03,0.000000,,2013-02-01 02:32:00,
2013-01-31 21:42:00,36.0,14.0,-100.00,SW,217,8.0,22.0,40,0.00,,,0.03,0.000000,,2013-02-01 02:42:00,
2013-01-31 21:52:00,36.0,14.0,-100.00,SW,217,8.0,22.0,40,0.00,,,0.03,0.000000,,2013-02-01 02:52:00,
2013-01-31 22:02:00,36.0,14.0,-100.00,SW,217,8.0,22.0,40,0.00,,,0.03,0.000000,,2013-02-01 03:02:00,
2013-01-31 22:33:00,35.0,15.0,-100.00,SW,227,13.0,32.0,44,0.00,,,0.01,0.000000,,2013-02-01 03:33:00,
2013-01-31 22:42:00,35.0,15.0,-100.00,SW,227,13.0,32.0,44,0.00,,,0.01,0.000000,,2013-02-01 03:42:00,
2013-01-31 22:52:00,35.0,15.0,-100.00,SW,227,13.0,32.0,44,0.00,,,0.01,0.000000,,2013-02-01 03:52:00,
2013-01-31 23:02:00,35.0,15.0,-100.00,SW,227,13.0,32.0,44,0.00,,,0.01,0.000000,,2013-02-01 04:02:00,
2013-01-31 23:32:00,35.0,14.0,-100.00,WSW,248,11.0,42.0,42,0.00,,,0.01,0.000000,,2013-02-01 04:32:00,
2013-01-31 23:42:00,35.0,14.0,-100.00,WSW,248,11.0,42.0,42,0.00,,,0.01,0.000000,,2013-02-01 04:42:00,
2013-01-31 23:52:00,35.0,14.0,-100.00,WSW,248,11.0,42.0,42,0.00,,,0.01,0.000000,,2013-02-01 04:52:00,